DMSP 5D-2 F11 DEB

基本信息
目录编号:
28318
目录名称:
DMSP 5D-2 F11 DEB
国际标识:
1991-082AF
轨道中心:
EARTH
物体状态:
已陨落(2024-10-10)
发射日期:
1991-11-28 UTC
轨道信息
数据来源: 国际轨道数据
星历时间: 2024-09-27T07:12:48+0800
半长轴: 6863.523km
偏心率: 0.0036257
轨道倾角: 98.720°
近地点辐角: 279.853°
升交点赤经: 50.721°
平近点角: 92.168°
近地点: 460.502km
远地点: 510.274km
周期: 94.315分钟
每日圈数: 15.268002
详细信息
发射场:
AFWTR
轨道高度:
LEO
数据来源:
AOE Integration Group
参考系:
TEME
时间系统:
UTC
历元类型:
SGP4
2D轨道图
3D轨道图
轨道高度分析图
轨道倾角分析图
轨道综合分析图
查看轨道综合分析图